Weather History for Ainsworth, NE

Change the Weather History Date:

Tuesday, December 11, 2012

  Actual Average Record
Temperature  
Mean Temperature 29 °F -  
Max Temperature 41 °F 38 °F 60 °F (2004)
Min Temperature 17 °F 19 °F -11 °F (2000)
Degree Days  
Heating Degree Days 36    
Moisture  
Dew Point 15 °F    
Average Humidity 60    
Maximum Humidity 86    
Minimum Humidity 31    
Precipitation  
Precipitation 0.00 in - - ()
Sea Level Pressure  
Sea Level Pressure 29.84 in    
Wind  
Wind Speed 10 mph (WSW)    
Max Wind Speed 20 mph    
Max Gust Speed 23 mph    
Visibility 10 miles    
Events      
Averages and records for this station are not official NWS values.
T = Trace of Precipitation, MM = Missing Value Source: NWS Daily Summary

Daily Weather History Graph

Daily Weather History Graph

Search for Another Location

Airport:

Trip Planner

Search our weather history database for the weather conditions in past years. The results will help you decide how hot, cold, wet, or windy it might be!

Date:

Astronomy

Dec. 11, 2012 Rise Set
Actual Time 8:00 AM CST 5:06 PM CST
Civil Twilight 7:28 AM CST 5:38 PM CST
Nautical Twilight 6:52 AM CST 6:14 PM CST
Astronomical Twilight 6:18 AM CST 6:48 PM CST
Moon 5:55 AM CST (12/11) 3:48 PM CST (12/11)
Length of Visible Light 10h 10m
Length of Day
9h 06m
Waning Crescent, 4% of the Moon is Illuminated
Dec 11
Waning Crescent
Dec 13
New
Dec 19
First Quarter
Dec 28
Full
Jan 4
Last Quarter

Hourly Weather History & Observations

Time (CST) Temp. Windchill Dew Point Humidity Pressure Visibility Wind Dir Wind Speed Gust Speed Precip Events Conditions
12:15 AM 22.6 °F 13.4 °F 18.3 °F 83% 29.89 in 10.0 mi West 8.1 mph - N/A   Clear
12:35 AM 21.9 °F 13.4 °F 17.1 °F 82% 29.89 in 10.0 mi West 6.9 mph - N/A   Clear
12:55 AM 20.8 °F 11.2 °F 16.3 °F 83% 29.89 in 10.0 mi West 8.1 mph - N/A   Clear
1:15 AM 20.8 °F 12.1 °F 15.8 °F 81% 29.89 in 10.0 mi West 6.9 mph - N/A   Clear
1:35 AM 20.5 °F 10.8 °F 15.1 °F 80% 29.89 in 10.0 mi West 8.1 mph - N/A   Clear
1:55 AM 20.8 °F 9.7 °F 15.4 °F 80% 29.89 in 10.0 mi West 10.4 mph - N/A   Clear
2:15 AM 21.2 °F 10.9 °F 15.3 °F 78% 29.89 in 10.0 mi West 9.2 mph - N/A   Clear
2:35 AM 21.9 °F 11.7 °F 15.8 °F 77% 29.89 in 10.0 mi West 9.2 mph - N/A   Scattered Clouds
2:55 AM 23.7 °F 14.0 °F 17.2 °F 76% 29.89 in 10.0 mi West 9.2 mph - N/A   Mostly Cloudy
3:15 AM 24.8 °F 15.3 °F 18.1 °F 76% 29.89 in 10.0 mi West 9.2 mph - N/A   Overcast
3:35 AM 25.3 °F 14.7 °F 18.5 °F 75% 29.89 in 10.0 mi WSW 11.5 mph - N/A   Overcast
3:55 AM 24.8 °F 15.3 °F 18.3 °F 76% 29.88 in 10.0 mi WSW 9.2 mph - N/A   Overcast
4:15 AM 24.3 °F 13.9 °F 17.4 °F 75% 29.89 in 10.0 mi WSW 10.4 mph - N/A   Mostly Cloudy
4:35 AM 22.6 °F 13.4 °F 16.7 °F 78% 29.88 in 10.0 mi WSW 8.1 mph - N/A   Mostly Cloudy
4:55 AM 21.7 °F 11.5 °F 16.5 °F 80% 29.89 in 10.0 mi WSW 9.2 mph - N/A   Scattered Clouds
5:15 AM 20.8 °F 10.4 °F 15.6 °F 80% 29.88 in 10.0 mi WSW 9.2 mph - N/A   Clear
5:35 AM 20.1 °F 8.8 °F 15.4 °F 82% 29.88 in 10.0 mi WSW 10.4 mph - N/A   Scattered Clouds
5:55 AM 21.2 °F 11.7 °F 15.8 °F 80% 29.88 in 10.0 mi WSW 8.1 mph - N/A   Mostly Cloudy
6:15 AM 20.1 °F 10.3 °F 15.4 °F 82% 29.88 in 10.0 mi WSW 8.1 mph - N/A   Overcast
6:35 AM 17.8 °F 7.5 °F 13.5 °F 83% 29.89 in 10.0 mi SW 8.1 mph - N/A   Scattered Clouds
6:55 AM 18.1 °F 7.1 °F 13.8 °F 83% 29.88 in 10.0 mi WSW 9.2 mph - N/A   Clear
7:15 AM 18.5 °F 7.5 °F 14.4 °F 84% 29.89 in 10.0 mi West 9.2 mph - N/A   Clear
7:35 AM 18.9 °F 8.8 °F 14.9 °F 85% 29.89 in 10.0 mi WSW 8.1 mph - N/A   Mostly Cloudy
7:55 AM 21.2 °F 12.6 °F 17.6 °F 86% 29.89 in 10.0 mi WSW 6.9 mph - N/A   Overcast
8:15 AM 21.7 °F 12.3 °F 17.2 °F 83% 29.89 in 10.0 mi WSW 8.1 mph - N/A   Mostly Cloudy
8:35 AM 22.1 °F 13.7 °F 17.6 °F 83% 29.89 in 10.0 mi West 6.9 mph - N/A   Scattered Clouds
8:55 AM 23.7 °F 14.7 °F 18.5 °F 80% 29.89 in 10.0 mi West 8.1 mph - N/A   Clear
9:15 AM 25.3 °F 16.0 °F 18.9 °F 76% 29.90 in 10.0 mi West 9.2 mph - N/A   Clear
9:35 AM 27.3 °F 17.1 °F 19.2 °F 72% 29.90 in 10.0 mi West 11.5 mph - N/A   Clear
9:55 AM 27.9 °F 17.3 °F 18.5 °F 68% 29.90 in 10.0 mi West 12.7 mph - N/A   Clear
10:15 AM 29.1 °F 19.4 °F 19.2 °F 67% 29.90 in 10.0 mi West 11.5 mph - N/A   Clear
10:35 AM 31.6 °F 22.6 °F 19.8 °F 62% 29.90 in 10.0 mi West 11.5 mph - N/A   Clear
10:55 AM 32.5 °F 23.7 °F 19.8 °F 59% 29.90 in 10.0 mi West 11.5 mph - N/A   Clear
11:15 AM 34.2 °F 25.2 °F 19.9 °F 56% 29.90 in 10.0 mi West 12.7 mph - N/A   Clear
11:35 AM 35.1 °F 26.9 °F 19.2 °F 53% 29.88 in 10.0 mi West 11.5 mph - N/A   Clear
11:55 AM 36.9 °F 29.1 °F 19.6 °F 50% 29.87 in 10.0 mi West 11.5 mph - N/A   Clear
12:15 PM 37.9 °F 29.6 °F 19.4 °F 47% 29.86 in 10.0 mi West 13.8 mph 17.3 mph N/A   Clear
12:35 PM 39.2 °F 29.8 °F 17.8 °F 42% 29.85 in 10.0 mi West 18.4 mph - N/A   Clear
12:55 PM 39.7 °F 31.9 °F 17.4 °F 41% 29.84 in 10.0 mi West 13.8 mph 20.7 mph N/A   Clear
1:15 PM 40.1 °F 32.7 °F 17.2 °F 40% 29.84 in 10.0 mi West 12.7 mph - N/A   Clear
1:35 PM 40.8 °F 33.3 °F 16.2 °F 37% 29.83 in 10.0 mi West 13.8 mph 19.6 mph N/A   Clear
1:55 PM 41.0 °F 33.1 °F 15.1 °F 35% 29.83 in 10.0 mi West 15.0 mph 21.9 mph N/A   Clear
2:15 PM 41.4 °F 34.0 °F 14.9 °F 34% 29.84 in 10.0 mi West 13.8 mph 21.9 mph N/A   Clear
2:35 PM 41.9 °F 34.6 °F 14.7 °F 33% 29.82 in 10.0 mi West 13.8 mph 17.3 mph N/A   Clear
2:55 PM 41.4 °F 34.7 °F 14.7 °F 34% 29.81 in 10.0 mi SW 11.5 mph 18.4 mph N/A   Clear
3:15 PM 41.0 °F 34.3 °F 13.8 °F 33% 29.81 in 10.0 mi SW 11.5 mph - N/A   Clear
3:35 PM 41.0 °F 34.7 °F 12.0 °F 31% 29.81 in 10.0 mi WSW 10.4 mph - N/A   Clear
3:55 PM 40.6 °F 34.8 °F 12.2 °F 31% 29.81 in 10.0 mi WSW 9.2 mph - N/A   Clear
4:15 PM 39.2 °F 35.0 °F 12.6 °F 34% 29.81 in 10.0 mi WSW 5.8 mph - N/A   Clear
4:35 PM 36.7 °F 32.0 °F 13.1 °F 38% 29.82 in 10.0 mi SW 5.8 mph - N/A   Clear
4:55 PM 34.3 °F 29.2 °F 13.1 °F 42% 29.81 in 10.0 mi SW 5.8 mph - N/A   Clear
5:15 PM 32.2 °F 26.7 °F 12.6 °F 44% 29.81 in 10.0 mi SW 5.8 mph - N/A   Clear
5:35 PM 28.6 °F 22.4 °F 12.9 °F 52% 29.81 in 10.0 mi SSW 5.8 mph - N/A   Clear
5:55 PM 25.5 °F 17.8 °F 12.4 °F 58% 29.80 in 10.0 mi SSW 6.9 mph - N/A   Clear
6:15 PM 24.8 °F 16.9 °F 12.0 °F 58% 29.80 in 10.0 mi South 6.9 mph - N/A   Clear
6:35 PM 22.3 °F 12.2 °F 11.5 °F 63% 29.80 in 10.0 mi South 9.2 mph - N/A   Clear
6:55 PM 23.7 °F 14.0 °F 12.2 °F 61% 29.79 in 10.0 mi South 9.2 mph - N/A   Clear
7:15 PM 23.9 °F 14.2 °F 12.2 °F 61% 29.78 in 10.0 mi South 9.2 mph - N/A   Clear
7:35 PM 26.8 °F 17.1 °F 13.1 °F 56% 29.78 in 10.0 mi South 10.4 mph - N/A   Clear
7:55 PM 30.0 °F 21.1 °F 13.3 °F 50% 29.78 in 10.0 mi South 10.4 mph - N/A   Clear
8:15 PM 30.9 °F 21.7 °F 12.9 °F 47% 29.78 in 10.0 mi South 11.5 mph - N/A   Clear
8:35 PM 31.1 °F 21.4 °F 13.1 °F 47% 29.77 in 10.0 mi South 12.7 mph - N/A   Clear
8:55 PM 31.1 °F 21.9 °F 13.1 °F 47% 29.77 in 10.0 mi South 11.5 mph - N/A   Clear
9:15 PM 30.9 °F 22.2 °F 13.1 °F 48% 29.76 in 10.0 mi South 10.4 mph - N/A   Clear
9:35 PM 30.7 °F 21.4 °F 12.9 °F 48% 29.75 in 10.0 mi South 11.5 mph - N/A   Clear
9:55 PM 30.2 °F 20.8 °F 12.7 °F 48% 29.75 in 10.0 mi South 11.5 mph - N/A   Clear
10:15 PM 30.0 °F 20.0 °F 12.4 °F 48% 29.74 in 10.0 mi South 12.7 mph - N/A   Clear
10:35 PM 30.6 °F 19.4 °F 11.8 °F 46% 29.72 in 10.0 mi South 16.1 mph - N/A   Clear
10:55 PM 30.2 °F 18.9 °F 11.3 °F 45% 29.72 in 10.0 mi South 16.1 mph - N/A   Clear
11:15 PM 29.7 °F 18.2 °F 11.3 °F 46% 29.72 in 10.0 mi SSW 16.1 mph - N/A   Clear
11:35 PM 30.2 °F 18.5 °F 10.9 °F 45% 29.72 in 10.0 mi SSW 17.3 mph 23.0 mph N/A   Clear
11:55 PM 30.2 °F 17.8 °F 10.4 °F 44% 29.72 in 10.0 mi SSW 19.6 mph - N/A   Clear